Location: ?????????
(53.2086°N, 54.0693°E)
Time: 05:31:50
(UTC+00:00)

Cosmos 2297 - Pass Details

Date: 08 December 2019
Orbit: 837 x 858 km, 71.0° (Epoch: 26 January)

Event Time Altitude Azimuth Distance (km) Brightness Sun altitude
Rises 15:08:54 0° 326° (NW) 3,436 7.3 -25.9°
Reaches altitude 10° 15:11:24 10° 323° (NW) 2,493 6.5 -26.3°
Maximum altitude 15:17:00 58° 246° (WSW) 991 4.2 -27.1°
Enters shadow 15:20:53 20° 174° (S) 1,872 5.4 -27.7°
